Location: Clarion
(42.7316°N, 93.7330°W)
Time: 09:48:45
(UTC+00:00)

Meteor 1-27 Rocket - Pass Details

Date: 22 April 2026
Orbit: 829 x 908 km, 81.3° (Epoch: 17 May)

Event Time Altitude Azimuth Distance (km) Brightness Sun altitude
Exits shadow 08:53:09 34° 166° (SSE) 1,445 4.6 -24.0°
Maximum altitude 08:55:43 66° 96° (E) 991 4.1 -23.7°
Drops below altitude 10° 09:01:35 10° 16° (NNE) 2,596 7.1 -22.9°
Sets 09:04:04 0° 13° (NNE) 3,536 7.9 -22.6°
